Location: Unspecified
(0.0000°N, 0.0000°E)
Time: 00:25:25
(UTC+00:00)

Orbcomm F1 (FM01) - Pass Details

Date: 23 May 2026
Orbit: 578 x 582 km, 70.0° (Epoch: 10 June)

Event Time Altitude Azimuth Distance (km) Brightness Sun altitude
Exits shadow 04:39:59 29° 290° (WNW) 1,070 7.9 -17.9°
Drops below altitude 10° 04:43:34 10° 347° (NNW) 1,889 9.6 -17.1°
Sets 04:46:00 0° 359° (N) 2,785 10.7 -16.5°
